Powrót do katalogu

GGSE 1

GGRS

AktywnyNawigacjaLEO
NORAD 728·PAYLOAD·🇺🇸 United States

Wystrzelony Jan 11, 1964 z Vandenberg Space Force Base

Loading…

Następne Przeloty (najbliższe 24 godziny)

TLE

ŚwieżeSource: Space-Track

Epoka: Sep 14, 2026, 08:12 UTC

1 00728U 64001B   26257.34199306  .00000019  00000-0  51542-4 0  9996
2 00728  69.9102  11.5697 0015660 238.7110 121.2463 13.97790034192133

Śledź GGSE 1 w czasie rzeczywistym z AllMySat

Download on the App Store